AirNav   Air Wisconsin Up To $57,000 Bonus
 
 442 users online  

90KS Sunset Strip Airpark
Topeka, Kansas, USA

GOING TO TOPEKA?


FAA INFORMATION EFFECTIVE 25 MARCH 2021

Location

FAA Identifier: 90KS
Lat/Long: 38-58-57.0000N 095-35-41.9200W
38-58.950000N 095-35.698667W
38.9825000,-95.5949778
(estimated)
Elevation: 1075 ft. / 328 m (estimated)
Variation: 04E (2000)
From city: 6 miles SE of TOPEKA, KS
Time zone: UTC -5 (UTC -6 during Standard Time)
Zip code: 66409

Airport Operations

Airport use: Private use. Permission required prior to landing
Activation date: 05/2001
Control tower: no
ARTCC: KANSAS CITY CENTER
FSS: WICHITA FLIGHT SERVICE STATION
Attendance: UNATNDD
Wind indicator: yes
Segmented circle: no

Airport Communications

WX ASOS at FOE (4 nm SW): PHONE 785-862-8258
WX ASOS at TOP (5 nm N): 121.275 (785-234-1591)
WX ASOS at LWC (18 nm E): 121.225 (785-749-1309)

Nearby radio navigation aids

VOR radial/distance  VOR name  Freq  Var
TOPr188/9.5TOPEKA VORTAC117.8005E

 
NDB name  Hdg/Dist  Freq  Var  ID
BILOY148/9.352105ETO - ---

Airport Services

Runway Information

Runway 18/36

Dimensions: 2600 x 100 ft. / 792 x 30 m
Surface: turf
RUNWAY 18  RUNWAY 36
Traffic pattern: leftright
Obstructions: none25 ft. trees, 20 ft. from runway

Airport Ownership and Management from official FAA records

Ownership: Privately-owned
Owner: SUNSET STRIP HOMEOWNERS
4624 SE PAULEN ROAD
BERRYTON, KS 66409
Phone 785-231-8502
Manager: GREG HUNSICKER
4624 SE PAULEN RD
BERRYTON, KS 66409
Phone 785-231-8502

Airport Operational Statistics

Aircraft based on the field: 9
Single engine airplanes: 9
    

Additional Remarks

FOR CD CTC KANSAS CITY ARTCC AT 913-254-8508.

Instrument Procedures

There are no published instrument procedures at 90KS.

Some nearby airports with instrument procedures:

KFOE - Topeka Regional Airport (4 nm SW)
KTOP - Philip Billard Municipal Airport (5 nm N)
KLWC - Lawrence Municipal Airport (18 nm E)
KOWI - Ottawa Municipal Airport (31 nm SE)
KIXD - New Century AirCenter Airport (34 nm E)
 
Loc | Ops | Rwys | IFR | FBO | Links
Com | Nav | Svcs | Stats | Notes
Area around 90KS (Sunset Strip Airpark)
 
Road maps at: MapQuest Bing Google
 
Aerial photo
WARNING: Photo may not be current or correct
Aerial photo of 90KS (Sunset Strip Airpark)
Photo by Greg Hunsicker
Photo taken 08-May-2010
looking south.

Do you have a better or more recent aerial photo of Sunset Strip Airpark that you would like to share? If so, please send us your photo.

 
Sectional chart

 
Airport distance calculator
Flying to Sunset Strip Airpark? Find the distance to fly.

From to 90KS

Sunrise and sunset
Times for 19-Apr-2021
 Local
(UTC-5)
 Zulu
(UTC)
Morning civil twilight06:1311:13
Sunrise06:4111:41
Sunset20:0201:02
Evening civil twilight20:3001:30

Current date and time
Zulu (UTC)  19-Apr-2021 09:21:35
Local (UTC-5)  19-Apr-2021 04:21:35
 
METAR
KFOE 
4nm SW 
190853Z AUTO 20008KT 10SM CLR 05/02 A2994 RMK AO2 SLP139 T00500017 58009
KTOP 
5nm N 
190853Z AUTO 00000KT 10SM CLR 04/00 A2994 RMK AO2 SLP141 T00440000 58009
KLWC 
18nm E 
190852Z AUTO 10003KT 10SM CLR 01/00 A2995 RMK AO1 SLP145 T00060000 58009
TAF
KFOE 
4nm SW 
190520Z 1906/2006 VRB04KT P6SM FEW200 FM191200 36011KT P6SM BKN070 FM191700 35018G29KT P6SM BKN040 FM200300 03014KT P6SM BKN022
KTOP 
5nm N 
190520Z 1906/2006 VRB04KT P6SM FEW200 FM191200 35011KT P6SM BKN080 FM191700 36016G27KT P6SM BKN050 FM200300 03012KT P6SM BKN025
NOTAMs
Click for the latest NOTAMs
NOTAMs are issued by the DoD/FAA and will open in a separate window not controlled by AirNav.

 

 
 

Would you like to see your business listed on this page?

 If your business provides an interesting product or service to pilots, flight crews, aircraft, or users of the Sunset Strip Airpark, you should consider listing it here.  To start the listing process, click on the button below
 
Add a business
 

Other Pages about Sunset Strip Airpark

Update a link
 
Copyright © AirNav, LLC. All rights reserved. Privacy Policy  Contact